Location: Marengo
(51.4813°N, 109.7825°W)
Time: 01:00:17
(UTC+00:00)

BlueWalker 3 - Pass Details

Date: 11 December 2022
Orbit: 499 x 517 km, 53.2° (Epoch: 26 January)

Event Time Altitude Azimuth Distance (km) Brightness Sun altitude
Rises 00:36:43 0° 289° (WNW) 2,636 6.4 -12.5°
Reaches altitude 10° 00:38:59 10° 284° (WNW) 1,742 5.6 -12.9°
Maximum altitude 00:42:45 45° 211° (SSW) 708 3.1 -13.4°
Drops below altitude 10° 00:46:28 10° 138° (SE) 1,722 4.4 -14.0°
Enters shadow 00:47:54 - 134° (SE) 2,278 5.0 -14.2°
